Simultaneous Nadir Overpasses (SNOs) Predictions

Prediction of SNOs between GOES-17 and METOP-B Satellite Orbit:

Table of predicted SNOs for the next 14.0 days since TLE Epoch: 11/21/2020
Index Date Time (GOES-17) GOES-17 Lat,Lon METOP-B Lat,Lon Distance(km) Time Diff (sec)
1 11/22/2020 06:54:21 0.04,-137.22 -0.71,-140.59 384.44 80
2 11/23/2020 06:31:02 0.04,-137.22 0.38,-135.59 185.48 80
3 11/24/2020 18:49:55 -0.04,-137.23 0.60,-140.16 333.89 80
4 11/25/2020 18:31:55 -0.03,-137.24 -0.49,-135.16 235.87 80
5 11/27/2020 06:50:56 0.03,-137.25 -0.53,-139.76 286.20 80
6 11/28/2020 06:27:36 0.03,-137.25 0.57,-134.76 283.11 80
7 11/29/2020 18:46:29 -0.03,-137.24 0.41,-139.33 237.48 80
8 11/30/2020 18:28:30 -0.02,-137.24 -0.69,-134.33 331.45 80
9 12/02/2020 06:47:30 0.02,-137.24 -0.33,-138.93 192.07 80
10 12/03/2020 06:24:11 0.01,-137.23 0.76,-133.93 376.30 80
11 12/04/2020 18:43:03 -0.01,-137.21 0.27,-138.49 145.84 80
